Flag for Burundi Weather past 2 weeks in Bujumbura, Burundi

Now
77 °F

Passing clouds.


Feels Like: 79 °F
Forecast: 67 / 88 °F
Wind: No wind

Location: Kigoma Airport

Current Time: Sep 19, 2014 at 9:59:14 PM

Latest Report: Sep 19, 2014 at 9:00 PM


Visibility: N/A

Pressure: 30.07 "Hg

Humidity: 69%

Dew point: 66 °F

Location of BujumburaLocation

Historic Weather in Bujumbura — Graph

°F

Bujumbura temperature yesterday

Maximum temperature yesterday: 88 °F (at 1:00 PM)
Minimum temperature yesterday: 68 °F (at 6:00 AM)
Average temperature yesterday: 78 °F

Past Weeks' High & Low Weather Summary

 TemperatureHumidityPressure
High90 °F (Sep 14, 12:00 PM)100% (Sep 5, 11:00 PM)30.21 "Hg (Sep 5, 11:00 PM)
Low63 °F (Sep 12, 5:00 AM)23% (Sep 10, 10:00 PM)29.95 "Hg (Sep 17, 3:00 PM)
Average78 °F57%30.07 "Hg
* Reported Sep 4 8:00 PM — Sep 19 8:00 PM, Bujumbura, Weather by CustomWeather, © 2014

Note: Actual official high and low records may vary slightly from our data, if they occured in-between our weather recording intervals... More about our weather records

Advertising

Bujumbura weather history for previous 24 hours

 ConditionsComfort  
Time TempWeatherWind HumidityBarometerVisibility
8:00 PM
Sep 19
77 °FPassing clouds.No wind65%30.04 "HgN/A
5:00 PM84 °FPartly sunny.12 mph51%29.98 "HgN/A
4:00 PM84 °FPartly sunny.7 mph55%30.01 "HgN/A
2:00 PM82 °FThunderstorms. Partly sunny.6 mph66%30.04 "HgN/A
1:00 PM82 °FThunderstorms. Partly sunny.7 mph62%30.07 "HgN/A
12:00 PM81 °FPartly sunny.10 mph66%30.09 "HgN/A
11:00 AM82 °FThundershowers. Partly sunny.14 mph66%30.12 "HgN/A
10:00 AM82 °FThundershowers. Partly sunny.17 mph66%30.12 "HgN/A
9:00 AM81 °FPartly sunny.12 mph66%30.15 "HgN/A
8:00 AM79 °FBroken clouds.6 mph61%30.12 "HgN/A
7:00 AM73 °FPartly sunny.No wind69%30.07 "HgN/A
6:00 AM72 °FPartly sunny.No wind73%30.07 "HgN/A
5:00 AM73 °FClear.No wind65%30.07 "Hg10 mi
2:00 AM73 °FClear.No wind65%30.04 "Hg10 mi
11:00 PM
Sep 18
73 °FClear.No wind69%30.09 "Hg10 mi
10:00 PM75 °FClear.No wind78%30.07 "Hg10 mi
9:00 PM75 °FPassing clouds.No wind78%30.07 "HgN/A
Weather by CustomWeather, © 2014

See weather overviewHow to use our weather pages